When you browse on this site, cookies collect data to enhance your experience and personalize the content and advertising you see.
Visit our Privacy Policy to learn more. By continuing to use the site, you agree to this use of cookies and data.
  • In Deutschland
  • Länderverzeichnis
  • Für 7 Tage
  • Wassertemperatur
  • Wetterkarte
  • Widgets
  • user-avatar
    Anmelden

    Stündliche Wetter Sölden

    Heute, 25 August, Sonntag

    Zeit Temperatur Niederschläge Wind Luftdruck Luftfeuchtigkeit
    00:00 +8°C° 0 mm 1 m/S 587 mmHg 87%
    01:00 +7°C° 0 mm 1 m/S 587 mmHg 87%
    02:00 +7°C° 0 mm 1 m/S 586 mmHg 87%
    03:00 +7°C° 0 mm 1 m/S 586 mmHg 87%
    04:00 +6°C° 0 mm 1 m/S 586 mmHg 87%
    05:00 +8°C° 0 mm 1 m/S 587 mmHg 84%
    06:00 +9°C° 0 mm 1 m/S 587 mmHg 82%
    07:00 +9°C° 0 mm 0 m/S 588 mmHg 79%
    08:00 +12°C° 0.1 mm 1 m/S 589 mmHg 73%
    09:00 +14°C° 0.1 mm 1 m/S 590 mmHg 66%
    10:00 +16°C° 0.1 mm 1 m/S 591 mmHg 60%
    11:00 +16°C° 0.6 mm 1 m/S 591 mmHg 59%
    12:00 +18°C° 0.6 mm 1 m/S 591 mmHg 59%
    13:00 +18°C° 0.6 mm 1 m/S 591 mmHg 59%
    14:00 +16°C° 1.4 mm 1 m/S 590 mmHg 63%
    15:00 +16°C° 1.4 mm 1 m/S 590 mmHg 68%
    16:00 +15°C° 1.4 mm 1 m/S 589 mmHg 72%
    17:00 +13°C° 1.2 mm 1 m/S 589 mmHg 78%
    18:00 +12°C° 1.2 mm 1 m/S 588 mmHg 84%
    19:00 +10°C° 1.2 mm 1 m/S 587 mmHg 90%
    20:00 +10°C° 0.3 mm 1 m/S 587 mmHg 89%
    21:00 +9°C° 0.3 mm 1 m/S 587 mmHg 89%
    22:00 +8°C° 0.3 mm 1 m/S 587 mmHg 89%
    23:00 +8°C° 0 mm 1 m/S 587 mmHg 89%

    Morgen, 26 August, Montag

    Zeit Temperatur Niederschläge Wind Luftdruck Luftfeuchtigkeit
    00:00 +8°C° 0 mm 1 m/S 587 mmHg 89%
    01:00 +7°C° 0 mm 1 m/S 586 mmHg 89%
    02:00 +7°C° 0 mm 1 m/S 586 mmHg 88%
    03:00 +7°C° 0 mm 1 m/S 586 mmHg 88%
    04:00 +7°C° 0 mm 1 m/S 586 mmHg 88%
    05:00 +8°C° 0 mm 1 m/S 586 mmHg 86%
    06:00 +8°C° 0 mm 0 m/S 587 mmHg 84%
    07:00 +9°C° 0 mm 0 m/S 587 mmHg 82%
    08:00 +12°C° 0 mm 1 m/S 588 mmHg 75%
    09:00 +14°C° 0 mm 1 m/S 589 mmHg 67%
    10:00 +16°C° 0 mm 1 m/S 590 mmHg 60%
    11:00 +16°C° 0.9 mm 1 m/S 590 mmHg 61%
    12:00 +16°C° 0.9 mm 1 m/S 590 mmHg 63%
    13:00 +18°C° 0.9 mm 1 m/S 590 mmHg 64%
    14:00 +16°C° 1.4 mm 1 m/S 590 mmHg 66%
    15:00 +16°C° 1.4 mm 1 m/S 589 mmHg 68%
    16:00 +16°C° 1.4 mm 1 m/S 589 mmHg 70%
    17:00 +14°C° 1 mm 1 m/S 588 mmHg 76%
    18:00 +13°C° 1 mm 1 m/S 588 mmHg 81%
    19:00 +10°C° 1 mm 0 m/S 587 mmHg 87%
    20:00 +9°C° 0.2 mm 0 m/S 587 mmHg 88%
    21:00 +9°C° 0.2 mm 0 m/S 587 mmHg 88%
    22:00 +8°C° 0.2 mm 0 m/S 587 mmHg 88%
    23:00 +8°C° 0 mm 0 m/S 586 mmHg 89%

    übermorgen, 27 August, Dienstag

    Zeit Temperatur Niederschläge Wind Luftdruck Luftfeuchtigkeit
    00:00 +8°C° 0 mm 1 m/S 586 mmHg 89%
    01:00 +8°C° 0 mm 1 m/S 586 mmHg 89%
    02:00 +8°C° 0 mm 1 m/S 586 mmHg 89%
    03:00 +7°C° 0 mm 1 m/S 586 mmHg 89%
    04:00 +7°C° 0 mm 1 m/S 586 mmHg 89%
    05:00 +8°C° 0 mm 1 m/S 586 mmHg 87%
    06:00 +8°C° 0 mm 0 m/S 587 mmHg 85%
    07:00 +10°C° 0 mm 0 m/S 588 mmHg 82%
    08:00 +13°C° 0 mm 1 m/S 589 mmHg 74%
    09:00 +15°C° 0 mm 1 m/S 590 mmHg 66%
    10:00 +18°C° 0 mm 1 m/S 591 mmHg 58%
    11:00 +18°C° 0.1 mm 1 m/S 591 mmHg 57%
    12:00 +19°C° 0.1 mm 1 m/S 591 mmHg 55%
    13:00 +18°C° 0.1 mm 2 m/S 591 mmHg 54%
    14:00 +18°C° 0.3 mm 2 m/S 591 mmHg 56%
    15:00 +18°C° 0.3 mm 2 m/S 590 mmHg 58%
    16:00 +18°C° 0.3 mm 2 m/S 590 mmHg 60%
    17:00 +15°C° 0.4 mm 1 m/S 589 mmHg 70%
    18:00 +13°C° 0.4 mm 1 m/S 588 mmHg 80%
    19:00 +10°C° 0.4 mm 0 m/S 587 mmHg 91%
    20:00 +9°C° 0.1 mm 0 m/S 587 mmHg 91%
    21:00 +10°C° 0.1 mm 1 m/S 587 mmHg 91%
    22:00 +9°C° 0.1 mm 1 m/S 587 mmHg 92%
    23:00 +9°C° 0 mm 1 m/S 587 mmHg 92%

    28 August, Mittwoch

    Zeit Temperatur Niederschläge Wind Luftdruck Luftfeuchtigkeit
    00:00 +9°C° 0 mm 1 m/S 586 mmHg 92%
    01:00 +8°C° 0 mm 1 m/S 586 mmHg 92%
    02:00 +8°C° 0 mm 1 m/S 586 mmHg 92%
    03:00 +8°C° 0 mm 1 m/S 586 mmHg 92%
    04:00 +8°C° 0 mm 1 m/S 586 mmHg 92%
    05:00 +9°C° 0 mm 1 m/S 586 mmHg 90%
    06:00 +9°C° 0 mm 0 m/S 586 mmHg 89%
    07:00 +10°C° 0 mm 0 m/S 587 mmHg 88%
    08:00 +12°C° 0 mm 1 m/S 588 mmHg 81%
    09:00 +14°C° 0 mm 1 m/S 588 mmHg 73%
    10:00 +16°C° 0 mm 1 m/S 589 mmHg 66%
    11:00 +18°C° 0.2 mm 1 m/S 589 mmHg 63%
    12:00 +17°C° 0.2 mm 2 m/S 589 mmHg 61%
    13:00 +18°C° 0.2 mm 2 m/S 589 mmHg 58%
    14:00 +17°C° 0.5 mm 2 m/S 589 mmHg 62%
    15:00 +16°C° 0.5 mm 2 m/S 588 mmHg 65%
    16:00 +16°C° 0.5 mm 2 m/S 588 mmHg 69%
    17:00 +14°C° 0.5 mm 1 m/S 587 mmHg 76%
    18:00 +12°C° 0.5 mm 1 m/S 586 mmHg 83%
    19:00 +11°C° 0.5 mm 1 m/S 586 mmHg 90%
    20:00 +10°C° 0.1 mm 1 m/S 586 mmHg 90%
    21:00 +10°C° 0.1 mm 1 m/S 586 mmHg 90%
    22:00 +9°C° 0.1 mm 1 m/S 585 mmHg 90%
    23:00 +9°C° 0 mm 1 m/S 585 mmHg 90%

    29 August, Donnerstag

    Zeit Temperatur Niederschläge Wind Luftdruck Luftfeuchtigkeit
    00:00 +9°C° 0 mm 1 m/S 585 mmHg 91%
    01:00 +8°C° 0 mm 1 m/S 585 mmHg 91%
    02:00 +8°C° 0 mm 1 m/S 584 mmHg 91%
    03:00 +7°C° 0 mm 1 m/S 584 mmHg 90%
    04:00 +7°C° 0 mm 1 m/S 584 mmHg 90%
    05:00 +8°C° 0 mm 1 m/S 585 mmHg 88%
    06:00 +9°C° 0 mm 1 m/S 585 mmHg 86%
    07:00 +10°C° 0 mm 1 m/S 586 mmHg 84%
    08:00 +12°C° 0.1 mm 1 m/S 587 mmHg 77%
    09:00 +14°C° 0.1 mm 1 m/S 588 mmHg 70%
    10:00 +16°C° 0.1 mm 1 m/S 589 mmHg 63%
    11:00 +16°C° 0.5 mm 1 m/S 589 mmHg 62%
    12:00 +18°C° 0.5 mm 1 m/S 589 mmHg 61%
    13:00 +18°C° 0.5 mm 1 m/S 589 mmHg 59%
    14:00 +18°C° 0.9 mm 1 m/S 589 mmHg 60%
    15:00 +18°C° 0.9 mm 1 m/S 589 mmHg 61%
    16:00 +16°C° 0.9 mm 1 m/S 588 mmHg 62%
    17:00 +15°C° 1 mm 1 m/S 588 mmHg 70%
    18:00 +13°C° 1 mm 1 m/S 587 mmHg 79%
    19:00 +10°C° 1 mm 2 m/S 587 mmHg 87%
    20:00 +11°C° 0.7 mm 1 m/S 587 mmHg 88%
    21:00 +10°C° 0.7 mm 1 m/S 587 mmHg 89%
    22:00 +10°C° 0.7 mm 1 m/S 587 mmHg 90%
    23:00 +9°C° 0.1 mm 1 m/S 587 mmHg 91%

    30 August, Freitag

    Zeit Temperatur Niederschläge Wind Luftdruck Luftfeuchtigkeit
    00:00 +9°C° 0.1 mm 1 m/S 586 mmHg 91%
    01:00 +8°C° 0.1 mm 1 m/S 586 mmHg 91%
    02:00 +8°C° 0 mm 1 m/S 586 mmHg 90%
    03:00 +8°C° 0 mm 1 m/S 586 mmHg 90%
    04:00 +8°C° 0 mm 1 m/S 586 mmHg 89%
    05:00 +8°C° 0 mm 1 m/S 587 mmHg 87%
    06:00 +9°C° 0 mm 1 m/S 587 mmHg 86%
    07:00 +10°C° 0 mm 1 m/S 587 mmHg 84%
    08:00 +12°C° 0 mm 1 m/S 588 mmHg 77%
    09:00 +13°C° 0 mm 1 m/S 589 mmHg 69%
    10:00 +15°C° 0 mm 1 m/S 590 mmHg 62%
    11:00 +16°C° 0.5 mm 1 m/S 590 mmHg 60%
    12:00 +18°C° 0.5 mm 1 m/S 590 mmHg 57%
    13:00 +19°C° 0.5 mm 1 m/S 591 mmHg 55%
    14:00 +18°C° 0.8 mm 1 m/S 590 mmHg 59%
    15:00 +16°C° 0.8 mm 1 m/S 590 mmHg 63%
    16:00 +16°C° 0.8 mm 1 m/S 589 mmHg 66%
    17:00 +14°C° 0.8 mm 1 m/S 589 mmHg 73%
    18:00 +12°C° 0.8 mm 1 m/S 588 mmHg 80%
    19:00 +10°C° 0.8 mm 0 m/S 587 mmHg 87%
    20:00 +10°C° 0.6 mm 1 m/S 587 mmHg 88%
    21:00 +9°C° 0.6 mm 1 m/S 587 mmHg 89%
    22:00 +8°C° 0.6 mm 1 m/S 587 mmHg 90%
    23:00 +8°C° 0.1 mm 1 m/S 586 mmHg 90%
    Mehr zeigen